[[{"header":{"parameterUnit":"m.s-1","parameterCategory":1,"la1":30.2991,"la2":30.254,"lo1":-89.0895,"lo2":-89.0444,"dy":0.0017,"dx":0.0017,"nx":28,"ny":28,"refTime":"2024-05-03T21:00:00:Z","depth":0,"parameterNumber":2,"parameterNumberName":"U-component_of_WINDS"},"data":[0,0,0,0,0,0,0,0,0,0,0,0,0,0,0,0,0,0,0,0,0,0,0,0,0,0,0,0,0,0,0,0,0,0,0,0,0,0,0,0,0,0,0,0,0,0,0,0,0,0,0,0,0,0,0,0,0,0,-0.6155,-0.6155,0,-0.6118,-0.6117,-0.6117,-0.609,-0.609,-0.6089,-0.6089,-0.6048,-0.6047,-0.6046,0,0,0,0,0,0,0,0,0,0,0,0,0,-0.6204,-0.6203,-0.6155,-0.6155,-0.6155,-0.6118,-0.6117,-0.6117,-0.609,-0.6089,-0.6089,-0.6089,-0.6049,-0.6047,-0.6046,0,0,0,0,0,0,0,0,0,0,0,0,0,-0.6176,-0.6203,-0.6156,-0.6137,-0.6135,-0.6118,-0.6117,-0.6116,-0.609,-0.6089,-0.6089,-0.6089,-0.6049,-0.6048,-0.6046,-0.6044,0,0,-0.6042,-0.6042,0,0,0,0,0,0,0,0,-0.6178,-0.6174,-0.614,-0.6138,-0.6136,-0.6108,-0.6119,-0.6092,-0.609,-0.6107,-0.6089,-0.6089,-0.6068,-0.6065,-0.6059,-0.6042,-0.6041,-0.6042,-0.6041,-0.6041,-0.604,0,0,0,0,0,0,0,-0.618,-0.6176,-0.614,-0.614,-0.6137,-0.613,-0.6126,-0.6114,-0.609,-0.6105,-0.6103,-0.6099,-0.6067,-0.606,-0.6058,-0.604,-0.6042,-0.6041,-0.604,-0.604,-0.6021,-0.6022,0,0,0,0,0,0,-0.6185,-0.6177,-0.6142,-0.6139,-0.6156,-0.6129,-0.6124,-0.6117,-0.609,-0.6085,-0.61,-0.6098,-0.6063,-0.6059,-0.6056,-0.6053,-0.6041,-0.6039,-0.6039,-0.6021,-0.6021,-0.6022,0,0,0,0,0,0,-0.6186,-0.6182,-0.6143,-0.6158,-0.6152,-0.6129,-0.6121,-0.6117,-0.611,-0.6085,-0.6081,-0.6097,-0.6062,-0.6058,-0.6048,-0.6051,-0.6039,-0.6038,-0.6021,-0.6021,-0.6022,-0.6046,0,0,0,0,0,0,-0.6187,-0.6182,-0.6181,-0.6158,-0.6152,-0.6136,-0.6121,-0.6116,-0.6108,-0.6106,-0.6082,-0.6078,-0.6062,-0.605,-0.6047,-0.6049,-0.6037,-0.602,-0.6021,-0.6021,-0.6045,-0.6047,-0.6049,0,0,0,0,0,-0.6189,-0.6189,-0.6181,-0.6177,-0.615,-0.6136,-0.6132,-0.6115,-0.6108,-0.6107,-0.6092,-0.6078,-0.6051,-0.6049,-0.6045,-0.6047,-0.602,-0.6021,-0.6021,-0.6043,-0.6046,-0.6049,0,0,0,0,0,0,-0.6212,-0.6185,-0.6177,-0.6169,-0.6155,-0.6132,-0.6129,-0.6118,-0.6105,-0.6103,-0.6081,-0.6076,-0.6069,-0.6057,-0.6055,-0.6044,-0.6034,-0.6034,-0.6052,-0.6055,-0.6057,-0.606,-0.6035,0,0,0,0,0,-0.6217,-0.6208,-0.6185,-0.618,-0.6174,-0.6153,-0.6146,-0.6134,-0.6118,-0.6112,-0.6095,-0.608,-0.6069,-0.6061,-0.6049,-0.6043,-0.6038,-0.6042,-0.6045,-0.6047,-0.6047,-0.6044,-0.6046,-0.6024,-0.6024,-0.6024,0,0,-0.6225,-0.6209,-0.6205,-0.6184,-0.6172,-0.6163,-0.6148,-0.6139,-0.6132,-0.611,-0.61,-0.6088,-0.6069,-0.6062,-0.6058,-0.6052,-0.6052,-0.6048,-0.6049,-0.6048,-0.6045,-0.6047,-0.6049,-0.6025,-0.6025,-0.6024,0,0,-0.6236,-0.6224,-0.6219,-0.6207,-0.6189,-0.6176,-0.6175,-0.6153,-0.6144,-0.6134,-0.6118,-0.6109,-0.6089,-0.6077,-0.6068,-0.6077,-0.6065,-0.6074,-0.6085,-0.6083,-0.6084,-0.6086,-0.6089,-0.6091,-0.6074,-0.6074,-0.6074,0,-0.6249,-0.6236,-0.6218,-0.621,-0.6202,-0.6183,-0.6178,-0.6167,-0.6146,-0.6141,-0.6135,-0.611,-0.6096,-0.6086,-0.6088,-0.6082,-0.608,-0.6076,-0.6086,-0.6087,-0.6088,-0.6091,-0.6093,-0.6075,-0.6075,-0.6075,-0.6075,0,-0.6253,-0.6244,-0.6242,-0.6223,-0.6214,-0.6208,-0.619,-0.6183,-0.6172,-0.6159,-0.6149,-0.6133,-0.6117,-0.6114,-0.6102,-0.6102,-0.6099,-0.609,-0.6079,-0.6092,-0.6094,-0.6095,-0.6077,-0.6076,-0.6076,-0.6076,0,0,-0.6276,-0.6249,-0.6248,-0.624,-0.622,-0.6212,-0.6206,-0.6191,-0.6186,-0.6173,-0.6167,-0.6151,-0.6143,-0.6133,-0.612,-0.6118,-0.6127,-0.6108,-0.6108,-0.6113,-0.6127,-0.6134,-0.6136,-0.6119,-0.6119,-0.6119,-0.6128,0,-0.6285,-0.6272,-0.6256,-0.6249,-0.6241,-0.6223,-0.6218,-0.6205,-0.6193,-0.6184,-0.6171,-0.616,-0.6149,-0.6144,-0.6141,-0.6126,-0.6129,-0.6125,-0.6113,-0.6113,-0.6118,-0.6137,-0.6145,-0.6155,-0.6129,-0.6129,-0.613,0,-0.6292,-0.6281,-0.6273,-0.6254,-0.625,-0.6246,-0.6232,-0.6224,-0.6209,-0.62,-0.6191,-0.6177,-0.6169,-0.616,-0.615,-0.6147,-0.6141,-0.6134,-0.6134,-0.6132,-0.6122,-0.6136,-0.6157,-0.6159,-0.6131,-0.6131,-0.6131,0,-0.6311,-0.6293,-0.6287,-0.628,-0.6258,-0.6255,-0.6246,-0.6231,-0.6224,-0.6212,-0.6207,-0.6194,-0.6187,-0.6177,-0.6161,-0.6156,-0.6153,-0.6142,-0.6146,-0.6146,-0.6145,-0.6146,-0.6166,-0.6141,-0.6141,-0.6141,-0.6141,0,-0.6322,-0.6318,-0.6295,-0.6291,-0.6287,-0.6269,-0.6265,-0.6254,-0.6241,-0.6234,-0.6218,-0.6212,-0.6191,-0.6183,-0.617,-0.6164,-0.616,-0.6153,-0.615,-0.6155,-0.6156,-0.6151,-0.615,-0.6142,-0.6142,-0.6142,-0.6141,0,-0.6342,-0.6327,-0.6318,-0.6299,-0.6294,-0.6291,-0.6274,-0.627,-0.6258,-0.625,-0.6247,-0.6228,-0.6218,-0.6201,-0.6185,-0.6176,-0.6173,-0.6167,-0.6178,-0.6176,-0.6181,-0.6181,-0.6199,-0.6201,-0.6175,-0.6175,-0.6176,0,-0.635,-0.6347,-0.6327,-0.6322,-0.6314,-0.6306,-0.6299,-0.6282,-0.6275,-0.6259,-0.6256,-0.6245,-0.6235,-0.622,-0.6204,-0.6193,-0.6187,-0.6194,-0.6185,-0.619,-0.6187,-0.6188,-0.6188,-0.6196,-0.6196,-0.6196,-0.6197,0,-0.6366,-0.6359,-0.635,-0.6339,-0.6331,-0.6321,-0.6311,-0.6307,-0.6288,-0.6281,-0.6271,-0.6264,-0.6249,-0.6238,-0.6224,-0.6214,-0.6203,-0.62,-0.62,-0.6205,-0.6212,-0.6209,-0.6184,-0.6199,-0.6199,-0.6199,-0.6199,-0.6199,-0.6381,-0.6378,-0.6364,-0.6355,-0.6345,-0.6336,-0.6331,-0.6319,-0.631,-0.6297,-0.6288,-0.6278,-0.6265,-0.6245,-0.6237,-0.6229,-0.6224,-0.6224,-0.6224,-0.6225,-0.6227,-0.6214,-0.6227,-0.6226,-0.6226,-0.6226,-0.6226,0,-0.6397,-0.6388,-0.6379,-0.6365,-0.6358,-0.6349,-0.6336,-0.6331,-0.6324,-0.6312,-0.6303,-0.6292,-0.6282,-0.6266,-0.6255,-0.6252,-0.6247,-0.625,-0.625,-0.6248,-0.6232,-0.6233,-0.6255,-0.6255,-0.6255,-0.6255,-0.6255,-0.6255,-0.6405,-0.6399,-0.6391,-0.638,-0.6371,-0.6362,-0.6356,-0.6348,-0.6339,-0.6327,-0.6319,-0.6309,-0.6296,-0.6284,-0.6275,-0.6271,-0.6267,-0.6273,-0.6267,-0.6252,-0.6249,-0.6247,-0.6248,-0.6272,-0.6272,-0.6284,-0.6284,-0.6284]},{"header":{"parameterUnit":"m.s-1","parameterCategory":1,"la1":30.2991,"la2":30.254,"lo1":-89.0895,"lo2":-89.0444,"dy":0.0017,"dx":0.0017,"nx":28,"ny":28,"refTime":"2024-05-03T21:00:00:Z","depth":0,"parameterNumber":3,"parameterNumberName":"V-component_of_WINDS"},"data":[0,0,0,0,0,0,0,0,0,0,0,0,0,0,0,0,0,0,0,0,0,0,0,0,0,0,0,0,0,0,0,0,0,0,0,0,0,0,0,0,0,0,0,0,0,0,0,0,0,0,0,0,0,0,0,0,0,0,3.4608,3.4608,0,3.462,3.462,3.462,3.4651,3.4651,3.4652,3.4653,3.466,3.466,3.466,0,0,0,0,0,0,0,0,0,0,0,0,0,3.4607,3.4607,3.4608,3.4608,3.4608,3.462,3.462,3.462,3.4651,3.4651,3.4652,3.4653,3.4661,3.466,3.466,0,0,0,0,0,0,0,0,0,0,0,0,0,3.4612,3.4606,3.4608,3.4625,3.4626,3.462,3.462,3.462,3.4651,3.4652,3.4652,3.4653,3.4661,3.466,3.4659,3.4636,0,0,3.4658,3.4657,0,0,0,0,0,0,0,0,3.4611,3.4612,3.4622,3.4624,3.4625,3.4635,3.4623,3.4625,3.465,3.4641,3.4653,3.4654,3.4651,3.4651,3.4651,3.4636,3.4637,3.4658,3.4657,3.4657,3.4657,0,0,0,0,0,0,0,3.4611,3.4611,3.4612,3.4622,3.4624,3.4631,3.4632,3.4623,3.464,3.4642,3.4644,3.4646,3.4652,3.4652,3.4651,3.4637,3.4658,3.4657,3.4657,3.4656,3.4605,3.4604,0,0,0,0,0,0,3.4609,3.4611,3.4612,3.4613,3.4621,3.463,3.4632,3.4631,3.464,3.4643,3.4645,3.4647,3.4652,3.4652,3.4652,3.4626,3.4657,3.4656,3.4656,3.4606,3.4604,3.4603,0,0,0,0,0,0,3.4609,3.4609,3.4611,3.4612,3.4613,3.4629,3.4627,3.4631,3.463,3.4643,3.4645,3.4642,3.4653,3.4653,3.464,3.4626,3.4656,3.4656,3.4607,3.4605,3.4604,3.4573,0,0,0,0,0,0,3.4608,3.4608,3.46,3.4612,3.4613,3.4601,3.4627,3.463,3.463,3.4633,3.464,3.4642,3.4654,3.4641,3.464,3.4626,3.4655,3.4608,3.4606,3.4604,3.4575,3.457,3.4566,0,0,0,0,0,3.4608,3.459,3.46,3.46,3.4604,3.46,3.46,3.4615,3.4629,3.462,3.4628,3.4642,3.4628,3.464,3.4638,3.4624,3.4609,3.4607,3.4604,3.4577,3.4571,3.4567,0,0,0,0,0,0,3.4574,3.4591,3.4603,3.4588,3.4592,3.4605,3.4595,3.4608,3.4608,3.461,3.4627,3.4629,3.4614,3.4618,3.463,3.4603,3.4621,3.4618,3.4601,3.4595,3.4591,3.459,3.4655,0,0,0,0,0,3.4565,3.4561,3.4577,3.4562,3.4564,3.4579,3.4578,3.4589,3.4594,3.4595,3.4602,3.4605,3.4602,3.4599,3.4596,3.4576,3.4578,3.4566,3.4562,3.4558,3.4555,3.4546,3.4541,3.4596,3.4596,3.4596,0,0,3.4545,3.4554,3.4551,3.4555,3.456,3.4555,3.458,3.4574,3.457,3.4594,3.4583,3.4589,3.4593,3.4577,3.457,3.458,3.4541,3.4555,3.4552,3.4551,3.4543,3.4538,3.4533,3.4594,3.4594,3.4595,0,0,3.4507,3.4514,3.4503,3.4508,3.4516,3.4527,3.4524,3.4536,3.4541,3.4531,3.4549,3.4544,3.4537,3.454,3.454,3.4506,3.4519,3.4504,3.4481,3.4472,3.4467,3.4464,3.4452,3.4447,3.4502,3.4502,3.4502,0,3.4482,3.4477,3.4495,3.4489,3.449,3.4514,3.4502,3.4506,3.4511,3.4511,3.4522,3.4516,3.452,3.4505,3.4497,3.4497,3.4494,3.4503,3.4467,3.4463,3.446,3.4449,3.4444,3.45,3.45,3.45,3.45,0,3.4445,3.4441,3.4431,3.4439,3.4439,3.443,3.4446,3.4444,3.4456,3.4465,3.4455,3.4461,3.4461,3.4458,3.4468,3.4445,3.4451,3.4464,3.4483,3.4453,3.4442,3.4438,3.4497,3.4498,3.4498,3.4499,0,0,3.4384,3.4404,3.44,3.4405,3.4416,3.4413,3.4405,3.4406,3.4404,3.4408,3.4401,3.4396,3.4409,3.4409,3.442,3.4412,3.4385,3.4426,3.4427,3.4418,3.436,3.435,3.4345,3.4394,3.4393,3.4392,3.436,0,3.4349,3.4339,3.4356,3.434,3.4337,3.436,3.4353,3.4359,3.4368,3.4365,3.4374,3.4371,3.4388,3.4388,3.4381,3.439,3.4373,3.4392,3.4387,3.4386,3.4385,3.4339,3.4328,3.4297,3.4356,3.4355,3.4355,0,3.4307,3.4311,3.4296,3.431,3.4309,3.4302,3.4306,3.4304,3.4311,3.4318,3.4319,3.4333,3.4326,3.4344,3.4334,3.4346,3.4345,3.4349,3.4348,3.4348,3.4368,3.4338,3.4288,3.4283,3.4348,3.4349,3.4349,0,3.4264,3.4266,3.4258,3.426,3.4276,3.4271,3.4277,3.4285,3.4286,3.4288,3.4289,3.4289,3.429,3.429,3.4303,3.4316,3.4291,3.4311,3.4296,3.4295,3.4289,3.4289,3.4238,3.4288,3.4289,3.4289,3.4289,0,3.4223,3.4213,3.4239,3.4234,3.4223,3.4243,3.4231,3.4239,3.4247,3.4243,3.4262,3.4258,3.4276,3.4273,3.4284,3.4274,3.4273,3.4278,3.4281,3.4276,3.4276,3.4276,3.4278,3.4287,3.4288,3.4288,3.4288,0,3.4174,3.4191,3.4184,3.42,3.4204,3.4195,3.4209,3.4204,3.4215,3.421,3.4209,3.4225,3.4223,3.4238,3.4237,3.4244,3.4229,3.4235,3.4227,3.4229,3.4214,3.4215,3.416,3.4154,3.4208,3.4208,3.4207,0,3.4147,3.414,3.4156,3.4156,3.4162,3.4161,3.4162,3.4181,3.4182,3.419,3.4184,3.4184,3.4185,3.4181,3.4192,3.4192,3.4198,3.4179,3.4198,3.4194,3.4198,3.4199,3.4198,3.4175,3.4174,3.4174,3.4173,0,3.4096,3.4106,3.4108,3.4113,3.4114,3.4119,3.4124,3.4122,3.4143,3.4142,3.4142,3.4143,3.4144,3.4144,3.4147,3.4152,3.4166,3.4168,3.4164,3.4159,3.4155,3.4157,3.4216,3.4169,3.4169,3.4169,3.417,3.417,3.4057,3.4053,3.4065,3.4066,3.4073,3.4078,3.4075,3.4087,3.4087,3.4091,3.4102,3.4099,3.4107,3.4113,3.4116,3.4114,3.4123,3.4118,3.4117,3.4115,3.4113,3.4156,3.4115,3.4115,3.4115,3.4115,3.4115,0,3.4008,3.4018,3.4019,3.4028,3.4029,3.4045,3.4052,3.4051,3.405,3.4057,3.4058,3.4058,3.4058,3.407,3.4071,3.4067,3.4074,3.4067,3.4067,3.4068,3.4104,3.4107,3.4061,3.4061,3.4061,3.4062,3.4062,3.4062,3.3983,3.3977,3.3988,3.3985,3.3993,3.3993,3.3996,3.4001,3.4007,3.4006,3.4007,3.4015,3.4024,3.4027,3.4027,3.4031,3.403,3.4021,3.4027,3.406,3.4065,3.407,3.4073,3.4021,3.4021,3.3991,3.399,3.399]}]]